User: anonymous   Login
Location: Clatteringshaws Loch
(55.0508°N, 4.2860°W)
Time: 01:27:43
(UTC+01:00)
Language:

Sapphire - Orbit

View from above orbital plane
View from above orbital plane
View from above satellite
View from above satellite

Ground track
Ground track

The orbit data is extracted from the following two-line orbital elements,

1 26932U 01043D   15213.82757660 -.00000026  00000-0  21920-4 0  9990
2 26932 067.0560 060.7767 0004326 258.3174 101.7442 14.30158897722361
Epoch (UTC): 01 August 2015 19:51:42
Eccentricity: 0.0004326
inclination: 67.0560°
perigee height: 788 km
apogee height: 794 km
right ascension of ascending node: 60.7767°
argument of perigee: 258.3174°
revolutions per day: 14.30158897
mean anomaly at epoch: 101.7442°
orbit number at epoch: 72236

The dashed part of the orbit path shows where the satellite is in the earth's shadow,  

DLR